Location: Pabrico
(37.5827°N, 122.0063°W)
Time: 10:38:49
(UTC+00:00)

Cosmos 1484 Rocket - Pass Details

Date: 13 April 2024
Orbit: 480 x 524 km, 97.6° (Epoch: 23 May)

Event Time Altitude Azimuth Distance (km) Brightness Sun altitude
Rises 12:57:10 0° 3° (N) 2,568 6.5 -8.1°
Reaches altitude 10° 12:59:20 10° 355° (N) 1,676 5.5 -7.7°
Maximum altitude 13:02:41 37° 287° (WNW) 761 3.2 -7.0°
Drops below altitude 10° 13:05:59 10° 218° (SW) 1,652 4.8 -6.4°
Sets 13:08:06 0° 210° (SSW) 2,524 5.8 -6.0°
